Lid_Strength_Index
4 3 4 5 5 7 8 8 7 8 9 9 9 9 10 10 10 10 10 11 11 11
5 4 5 5 6 6 7 8 10 10 10 10 10 11 11 11 13 12 12 14 14 13
5 5 6 7 8 8 9 9 12 13 13 13 13 13 13 13 14 14 13 13 15 14
6 6 10 10 10 12 12 13 13 13 13 14 14 14 14 14 14 14 14 14 14 14
9 10 12 12 13 13 13 13 13 13 13 14 14 14 14 14 14 14 15 15 15 14
10 11 12 12 12 12 13 13 13 13 14 14 14 14 14 14 15 15 15 15 15 15
10 10 11 12 13 13 13 13 13 13 14 14 14 14 15 15 15 15 15 15 15 15
11 11 11 12 13 13 13 13 14 14 14 14 15 15 15 15 15 15 15 15 15 15
12 12 12 13 13 14 14 14 14 14 14 15 14 14 14 15 15 15 15 16 15 15
14 14 14 13 13 14 15 14 14 14 14 14 14 14 13 14 14 15 15 15 15 15
15 15 15 14 14 14 14 14 14 15 15 14 14 13 13 14 14 15 15 14 14 15
14 14 14 15 15 14 14 14 14 14 15 15 15 13 13 13 14 15 14 14 14 14
15 15 15 15 15 15 15 15 15 15 15 15 15 13 13 13 14 15 15 14 14 15
15 16 16 16 15 16 16 16 16 16 16 16 15 15 13 12 13 14 15 15 14 14